"Pseudo-MPEC" for P10Lpvi

Created 2019 Jan 16 14:18:33 UT using Find_Orb

Click here for an explanation of pseudo-MPECs

 
 Astrometry: 
     P10Lpvi  C2019 01 11*ss)j]YY(OP1IXC%c.Nj;,]K[Ao3KB,.2DAELHtAstrometryV3wF51
     P10Lpvi  C2019 01 11BtV]:.b5WO;y\Ifk1,9`bL]Q];E$(gx^%YRguBEJ]x``dfQPrD65F51
     P10Lpvi  C2019 01 11fq-e/fxTM^ywAQ^'p$3FQ16@\=`E`L114PAN]redacted;TUu-SpF51
     P10Lpvi  C2019 01 11/PEtf[1#aC4us/PF*WAld7+/i:3-#g7b$C5A*20`?Vbf:s-,8yk!F51
     P10Lpvi |C2019 01 12AddE)a4$kG4K-T[I@Pv'64(jHgXR*ZMnxrQ9,V+-clickD0:xlcr807
     P10Lpvi |C2019 01 12:r]\Qifep4h@WNP6tMPMsnyo.S'6hvc%2nHRYfQ`,/h6K$1RU^K#807
     P10Lpvi |C2019 01 12YR8d2`l$\wdC,RY2Wjf(jC@d.e@cDL(\6:BR`i^d2Dpk0'6OGsj8807
     P10Lpvi |C2019 01 13^x]u8Y'S3pkQ(hereiN)d)+\Ou9(xKx0v7+hKfA8]fj?Vlm0OW9Z807
     P10Lpvi |C2019 01 13gZDAj@3Ob8o^PRJ@rZ2?jw)vkx`Z-,!gPw1J0:3H/qxAsh_-F!*P807
     P10Lpvi |C2019 01 13yeO3TL'gN7^-Yyu59(\:g2l:_ZP^ERg;@AgGbo8FOforEZO@oB#Q807
     P10Lpvi |C2019 01 15B@bZ?:!ZZw!\_pt`Ft@On5qqAaa^DHpfhXbMB-SDC8nxnlrC`.nX807
     P10Lpvi |C2019 01 158AdJuLwQn_*l(wauUlnS-V!e_1*Z2r-jw(N4dgWJ;r$k'K94XI6C807
     P10Lpvi |C2019 01 15otwlWmtkXb/i2explanation%;6pv;/1sX!tDj+1d]#APx2b:v+!807

Station data:
(807) Cerro Tololo Observatory, La Serena  (S30.169136 W70.805900)  Chile.
   1.5-m Ritchey-Chrétien.
(F51) Pan-STARRS 1, Haleakala  (N20.707235 W156.255910)  US/Hawaii.
   Observers N. Primak, A. Schultz, S. Watters, J. Thiel, T. Goggia. Measurer
   PS1 Science Consortium. 1.8-m Ritchey-Chrétien + CCD.

Orbital elements:  P10Lpvi
   Perihelion 2018 Aug 30.786558 +/- 6.75 TT = 18:52:38 (JD 2458361.286558)
Epoch 2019 Jan 15.0 TT = JDT 2458498.5   Earth MOID: 0.1769   Ma: 0.0375
M  43.65072689 +/- 5.7              (J2000 ecliptic)          AutoNEOCP
n   0.31812281 +/- 0.0273           Peri.   65.63280 +/- 3.2
a   2.12523113 +/- 0.121            Node   336.95857 +/- 0.33
e   0.4759177 +/- 0.0269            Incl.    8.37386 +/- 0.29
P   3.10                   H 19.3   G  0.15   U 10.3  
q 1.11379583 +/- 0.00677    Q 3.13666643 +/- 0.246
From 13 observations 2019 Jan. 11-15; mean residual 0".11
Residuals in arcseconds: 
190111 F51  .04+  .05+    190112 807  .09-  .19-    190115 807  .20-  .12-    
190111 F51  .09-  .08+    190112 807  .17-  .07+    190115 807  .15+  .04+    
190111 F51  .03+  .05-    190113 807  .04-  .02+    190115 807  .03+  .09+    
190111 F51  .09+  .08+    190113 807  .07-  .06+    
190112 807  .08+  .16-    190113 807  .25+  .04+    

Ephemerides (geocentric):
Date (UTC) HH   RA              Dec         delta   r     elong  mag " sig PA
---- -- -- --  -------------   -----------  ------ ------ -----  --- ---- ---
2019 01 16 14  11 19 56.964   +08 39 22.49  .98795 1.7749 128.4 21.7 .553 177
2019 01 16 15  11 19 55.303   +08 39 20.60  .98784 1.7751 128.4 21.7 .574 177
2019 01 16 16  11 19 53.636   +08 39 18.73  .98772 1.7754 128.5 21.7 .596 178
2019 01 16 17  11 19 51.965   +08 39 16.88  .98761 1.7757 128.5 21.7 .617 178
2019 01 16 18  11 19 50.289   +08 39 15.06  .98750 1.7759 128.6 21.7 .640 179
2019 01 16 19  11 19 48.607   +08 39 13.26  .98738 1.7762 128.6 21.7 .662 179
2019 01 16 20  11 19 46.921   +08 39 11.48  .98727 1.7764 128.7 21.7 .685 179
2019 01 16 21  11 19 45.230   +08 39 09.73  .98716 1.7767 128.7 21.7 .707   0
2019 01 16 22  11 19 43.534   +08 39 08.00  .98704 1.7770 128.8 21.7 .731   0
2019 01 16 23  11 19 41.833   +08 39 06.29  .98693 1.7772 128.8 21.7 .754   0
2019 01 17 00  11 19 40.128   +08 39 04.61  .98682 1.7775 128.9 21.7 .778   1
2019 01 17 01  11 19 38.417   +08 39 02.95  .98671 1.7778 128.9 21.7 .802   1
2019 01 17 02  11 19 36.701   +08 39 01.31  .98660 1.7780 129.0 21.7 .826   1
2019 01 17 03  11 19 34.981   +08 38 59.70  .98648 1.7783 129.0 21.7 .851   2
2019 01 17 04  11 19 33.256   +08 38 58.11  .98637 1.7785 129.1 21.7 .876   2
2019 01 17 05  11 19 31.525   +08 38 56.55  .98626 1.7788 129.1 21.7 .901   2
2019 01 17 06  11 19 29.790   +08 38 55.00  .98615 1.7791 129.1 21.7 .926   3
2019 01 17 07  11 19 28.050   +08 38 53.48  .98604 1.7793 129.2 21.7 .952   3
2019 01 17 08  11 19 26.306   +08 38 51.99  .98593 1.7796 129.2 21.7 .978   3
2019 01 17 09  11 19 24.556   +08 38 50.51  .98582 1.7799 129.3 21.7 1.00   4
2019 01 17 10  11 19 22.801   +08 38 49.06  .98571 1.7801 129.3 21.7 1.03   4
2019 01 17 11  11 19 21.042   +08 38 47.64  .98560 1.7804 129.4 21.7 1.06   4
2019 01 17 12  11 19 19.277   +08 38 46.23  .98549 1.7806 129.4 21.7 1.08   4
2019 01 17 13  11 19 17.508   +08 38 44.85  .98538 1.7809 129.5 21.7 1.11   5
2019 01 17 14  11 19 15.734   +08 38 43.50  .98527 1.7812 129.5 21.7 1.14   5
2019 01 17 15  11 19 13.955   +08 38 42.16  .98516 1.7814 129.6 21.7 1.17   5
2019 01 17 16  11 19 12.171   +08 38 40.85  .98505 1.7817 129.6 21.7 1.20   6
2019 01 17 17  11 19 10.382   +08 38 39.57  .98494 1.7820 129.7 21.7 1.22   6
2019 01 17 18  11 19 08.589   +08 38 38.30  .98484 1.7822 129.7 21.7 1.25   6
2019 01 17 19  11 19 06.790   +08 38 37.06  .98473 1.7825 129.8 21.7 1.28   6
2019 01 17 20  11 19 04.987   +08 38 35.84  .98462 1.7827 129.8 21.7 1.31   7
2019 01 17 21  11 19 03.179   +08 38 34.65  .98451 1.7830 129.9 21.7 1.34   7
2019 01 17 22  11 19 01.366   +08 38 33.48  .98440 1.7833 129.9 21.7 1.37   7
2019 01 17 23  11 18 59.548   +08 38 32.33  .98430 1.7835 130.0 21.7 1.40   7
2019 01 18 00  11 18 57.725   +08 38 31.20  .98419 1.7838 130.0 21.7 1.43   8
2019 01 18 01  11 18 55.897   +08 38 30.10  .98408 1.7841 130.1 21.7 1.46   8
2019 01 18 02  11 18 54.065   +08 38 29.02  .98398 1.7843 130.1 21.7 1.49   8
2019 01 18 03  11 18 52.228   +08 38 27.96  .98387 1.7846 130.2 21.7 1.52   9
2019 01 18 04  11 18 50.386   +08 38 26.93  .98376 1.7848 130.2 21.7 1.56   9
2019 01 18 05  11 18 48.539   +08 38 25.92  .98366 1.7851 130.3 21.7 1.59   9
2019 01 18 06  11 18 46.687   +08 38 24.93  .98355 1.7854 130.3 21.7 1.62   9
2019 01 18 07  11 18 44.830   +08 38 23.97  .98345 1.7856 130.4 21.7 1.65  10
2019 01 18 08  11 18 42.969   +08 38 23.03  .98334 1.7859 130.4 21.7 1.69  10
2019 01 18 09  11 18 41.102   +08 38 22.11  .98323 1.7862 130.5 21.7 1.72  10
2019 01 18 10  11 18 39.231   +08 38 21.21  .98313 1.7864 130.5 21.7 1.75  10
2019 01 18 11  11 18 37.355   +08 38 20.34  .98302 1.7867 130.6 21.7 1.79  11
2019 01 18 12  11 18 35.474   +08 38 19.49  .98292 1.7869 130.6 21.7 1.82  11
2019 01 18 13  11 18 33.589   +08 38 18.66  .98282 1.7872 130.7 21.7 1.85  11